sat.trackr.live / text

‹ back to catalog

STARLINK-6086

NORAD 56545 · 2023-065AU

PAYLOAD ACTIVE UNKNOWN

§ Identity

Operator
Country
US
Launch date
2023-05-14
Launch site
AFETR
Launch vehicle
Mass (kg)
RCS (m²)

Purposes: comms

External: N2YO · Heavens-Above · Gunter

§ Orbital elements

Epoch: 2026-09-20T13:24:59.572512Z

Period
94.27 min
Inclination
43.0033°
Eccentricity
0.0001578
Mean motion
15.27575820 rev/d
Perigee alt
482.0 km
Apogee alt
484.1 km
Semi-major
6,861.2 km
B*
6.0526e-6
RAAN
203.1774°
Arg perigee
266.1886°
Mean anomaly
93.8785°
Rev number
18,627

§ Raw data

STARLINK-60861 56545U 23065AU  26263.55902283 -.00000096  00000+0  60526-5 0  99932 56545  43.0033 203.1774 0001578 266.1886  93.8785 15.27575820186278

JSON: /api/v1/satellites/56545 · /tle

For live sub-satellite position, see the globe view (requires WebGL).

§ Visibility from observer

Set your observer location to see the next 7 days of passes ≥ 10°. The values pass through the URL so the page stays shareable.

No JS? Fill the form by hand. The geolocation button needs JavaScript.